Flag for China Weather past 2 weeks in Hangzhou, Zhejiang, China

Now
77 °F

Broken clouds.


Feels Like: 79 °F
Forecast: 67 / 85 °F
Wind: 6 mph from North

Location: Hangzhou Airport

Current Time: Aug 20, 2014 at 3:08:45 PM

Latest Report: Aug 20, 2014 at 2:30 PM


Visibility: 4 mi

Pressure: 29.80 "Hg

Humidity: 79%

Dew point: 70 °F

Location of HangzhouLocation

Historic Weather in Hangzhou — Graph

°F

Hangzhou temperature yesterday

Maximum temperature yesterday: 75 °F (at 12:00 PM)
Minimum temperature yesterday: 72 °F (at 1:00 AM)
Average temperature yesterday: 73 °F

Past Weeks' High & Low Weather Summary

 TemperatureHumidityPressure
High97 °F (Aug 5, 1:00 PM)94% (Aug 16, 3:00 PM)29.92 "Hg (Aug 16, 3:00 PM)
Low72 °F (Aug 12, 9:30 AM)44% (Aug 5, 1:30 PM)29.53 "Hg (Aug 6, 4:00 PM)
Average79 °F77%29.70 "Hg
* Reported Aug 5 1:00 PM — Aug 20 1:30 PM, Hangzhou, Weather by CustomWeather, © 2014

Note: Actual official high and low records may vary slightly from our data, if they occured in-between our weather recording intervals... More about our weather records

Advertising

Hangzhou weather history for previous 24 hours

 ConditionsComfort  
Time TempWeatherWind HumidityBarometerVisibility
1:30 PM
Aug 20
77 °FSprinkles. Broken clouds.8 mph79%29.80 "HgN/A
1:00 PM77 °FBroken clouds.6 mph79%29.80 "HgN/A
12:30 PM77 °FBroken clouds.8 mph74%29.80 "HgN/A
12:00 PM77 °FBroken clouds.6 mph79%29.83 "HgN/A
11:30 AM77 °FBroken clouds.6 mph79%29.80 "HgN/A
11:00 AM75 °FBroken clouds.6 mph83%29.80 "HgN/A
10:30 AM75 °FBroken clouds.3 mph83%29.80 "HgN/A
10:00 AM73 °FSprinkles. Broken clouds.6 mph89%29.80 "Hg5 mi
9:30 AM73 °FSprinkles. Broken clouds.8 mph89%29.80 "Hg5 mi
9:00 AM73 °FSprinkles. Broken clouds.8 mph89%29.83 "Hg4 mi
8:30 AM73 °FSprinkles. Broken clouds.10 mph89%29.80 "Hg4 mi
8:00 AM73 °FRain showers. Fog.10 mph89%29.80 "Hg2 mi
7:30 AM72 °FRain showers. Fog.10 mph94%29.80 "Hg2 mi
7:00 AM72 °FRain showers. Fog.8 mph88%29.80 "Hg2 mi
6:30 AM72 °FLots of rain. Fog.6 mph94%29.80 "Hg1 mi
6:00 AM72 °FLots of rain. Fog.6 mph94%29.80 "Hg1 mi
5:30 AM72 °FLots of rain. Fog.8 mph94%29.77 "Hg1 mi
4:30 AM73 °FSprinkles. Fog.6 mph89%29.80 "Hg1 mi
4:00 AM73 °FRain showers. Fog.6 mph89%29.80 "Hg1 mi
3:30 AM73 °FRain showers. Fog.3 mph89%29.80 "Hg1 mi
3:00 AM73 °FSprinkles. Fog.3 mph89%29.80 "Hg1 mi
2:30 AM73 °FSprinkles. Fog.6 mph89%29.80 "Hg1 mi
2:00 AM73 °FSprinkles. Fog.8 mph89%29.80 "Hg1 mi
1:30 AM73 °FSprinkles. Fog.3 mph89%29.83 "Hg1 mi
1:00 AM73 °FLight rain. Fog.3 mph89%29.83 "Hg1 mi
12:30 AM73 °FLight rain. Fog.1 mph89%29.83 "Hg1 mi
12:00 AM73 °FRain. Fog.3 mph89%29.86 "Hg1 mi
11:30 PM
Aug 19
73 °FRain. Fog.No wind83%29.86 "Hg1 mi
11:00 PM73 °FSprinkles. Fog.No wind83%29.86 "Hg2 mi
10:30 PM73 °FSprinkles. Fog.1 mph83%29.86 "Hg2 mi
10:00 PM73 °FSprinkles. Fog.3 mph83%29.86 "Hg2 mi
9:30 PM73 °FFog.1 mph83%29.86 "Hg2 mi
9:00 PM73 °FFog.1 mph89%29.86 "Hg2 mi
8:30 PM73 °FFog.1 mph83%29.86 "Hg2 mi
8:00 PM73 °FSprinkles. Fog.3 mph89%29.86 "Hg2 mi
7:30 PM73 °FSprinkles. Fog.1 mph89%29.86 "Hg2 mi
7:00 PM73 °FSprinkles. Fog.1 mph89%29.86 "Hg2 mi
6:30 PM73 °FSprinkles. Fog.3 mph89%29.86 "Hg2 mi
6:00 PM73 °FSprinkles. Fog.1 mph83%29.86 "Hg2 mi
5:30 PM73 °FSprinkles. Fog.1 mph83%29.86 "Hg2 mi
5:00 PM73 °FSprinkles. Fog.3 mph83%29.86 "Hg2 mi
4:30 PM73 °FSprinkles. Fog.No wind83%29.86 "Hg2 mi
4:00 PM73 °FLight rain. Fog.1 mph83%29.86 "Hg2 mi
3:30 PM73 °FLight rain. Fog.3 mph83%29.86 "Hg2 mi
3:00 PM73 °FLight rain. Fog.3 mph83%29.86 "Hg2 mi
Weather by CustomWeather, © 2014

See weather overviewHow to use our weather pages